Weather History for Dyersburg, TN

Change the Weather History Date:

Thursday, January 31, 2013

  Actual Average Record
Temperature  
Mean Temperature 39 °F -  
Max Temperature 50 °F 45 °F 73 °F (2002)
Min Temperature 26 °F 31 °F 14 °F (2004)
Degree Days  
Heating Degree Days 26    
Moisture  
Dew Point 21 °F    
Average Humidity 52    
Maximum Humidity 65    
Minimum Humidity 39    
Precipitation  
Precipitation 0.00 in - - ()
Sea Level Pressure  
Sea Level Pressure 30.12 in    
Wind  
Wind Speed 11 mph (West)    
Max Wind Speed 20 mph    
Max Gust Speed 28 mph    
Visibility 10 miles    
Events      
Averages and records for this station are not official NWS values.
T = Trace of Precipitation, MM = Missing Value Source: NWS Daily Summary

Daily Weather History Graph

Daily Weather History Graph

Search for Another Location

Airport:

Trip Planner

Search our weather history database for the weather conditions in past years. The results will help you decide how hot, cold, wet, or windy it might be!

Date:

Astronomy

Jan. 31, 2013 Rise Set
Actual Time 6:58 AM CST 5:23 PM CST
Civil Twilight 6:31 AM CST 5:50 PM CST
Nautical Twilight 6:01 AM CST 6:21 PM CST
Astronomical Twilight 5:30 AM CST 6:51 PM CST
Moon 10:14 PM CST (1/31) 9:08 AM CST (1/31)
Length of Visible Light 11h 19m
Length of Day
10h 25m
Waning Gibbous, 79% of the Moon is Illuminated
Jan 31
Waning Gibbous
Feb 3
Last Quarter
Feb 10
New
Feb 17
First Quarter
Feb 25
Full

Hourly Weather History & Observations

Time (CST) Temp. Windchill Dew Point Humidity Pressure Visibility Wind Dir Wind Speed Gust Speed Precip Events Conditions
12:15 AM 33.8 °F 23.9 °F 17.6 °F 52% 30.03 in 10.0 mi West 15.0 mph 24.2 mph N/A   Overcast
12:55 AM 33.8 °F 25.8 °F 17.6 °F 52% 30.03 in 10.0 mi WNW 10.4 mph 20.7 mph N/A   Overcast
1:15 AM 33.8 °F 23.9 °F 17.6 °F 52% 30.03 in 10.0 mi WNW 15.0 mph 20.7 mph N/A   Overcast
1:35 AM 33.8 °F 27.0 °F 17.6 °F 52% 30.03 in 10.0 mi West 8.1 mph 18.4 mph N/A   Overcast
1:56 AM 33.8 °F 27.7 °F 17.6 °F 52% 30.03 in 10.0 mi WNW 6.9 mph - N/A   Overcast
2:15 AM 32.0 °F 25.6 °F 17.6 °F 55% 30.02 in 10.0 mi WNW 6.9 mph - N/A   Overcast
2:35 AM 32.0 °F 24.2 °F 17.6 °F 55% 30.04 in 10.0 mi West 9.2 mph 16.1 mph N/A   Overcast
2:55 AM 32.0 °F 23.6 °F 17.6 °F 55% 30.04 in 10.0 mi West 10.4 mph - N/A   Overcast
3:15 AM 32.0 °F 24.2 °F 17.6 °F 55% 30.05 in 10.0 mi West 9.2 mph - N/A   Overcast
3:35 AM 32.0 °F 24.2 °F 17.6 °F 55% 30.04 in 10.0 mi West 9.2 mph - N/A   Overcast
3:55 AM 32.0 °F 24.8 °F 17.6 °F 55% 30.04 in 10.0 mi West 8.1 mph - N/A   Overcast
4:16 AM 30.2 °F 22.6 °F 17.6 °F 60% 30.04 in 10.0 mi WSW 8.1 mph - N/A   Overcast
4:35 AM 30.2 °F 21.9 °F 17.6 °F 60% 30.05 in 10.0 mi West 9.2 mph - N/A   Mostly Cloudy
4:55 AM 30.2 °F 23.4 °F 17.6 °F 60% 30.04 in 10.0 mi West 6.9 mph - N/A   Partly Cloudy
5:15 AM 30.2 °F 23.4 °F 17.6 °F 60% 30.06 in 10.0 mi West 6.9 mph - N/A   Clear
5:36 AM 30.2 °F 21.9 °F 17.6 °F 60% 30.07 in 10.0 mi West 9.2 mph 16.1 mph N/A   Clear
5:55 AM 30.2 °F 22.6 °F 17.6 °F 60% 30.09 in 10.0 mi West 8.1 mph - N/A   Clear
6:15 AM 30.2 °F 24.3 °F 17.6 °F 60% 30.09 in 10.0 mi WSW 5.8 mph - N/A   Clear
6:55 AM 28.4 °F 20.4 °F 17.6 °F 64% 30.11 in 10.0 mi WSW 8.1 mph - N/A   Clear
7:15 AM 28.4 °F 20.4 °F 17.6 °F 64% 30.12 in 10.0 mi WSW 8.1 mph - N/A   Clear
7:35 AM 30.2 °F 23.4 °F 17.6 °F 60% 30.12 in 10.0 mi WSW 6.9 mph - N/A   Clear
8:15 AM 30.2 °F 20.2 °F 17.6 °F 60% 30.15 in 10.0 mi WSW 12.7 mph - N/A   Clear
8:35 AM 32.0 °F 22.1 °F 17.6 °F 55% 30.16 in 10.0 mi West 13.8 mph 18.4 mph N/A   Clear
9:15 AM 33.8 °F 26.4 °F 19.4 °F 56% 30.15 in 10.0 mi WSW 9.2 mph 16.1 mph N/A   Clear
9:35 AM 35.6 °F 27.1 °F 19.4 °F 52% 30.16 in 10.0 mi WSW 12.7 mph - N/A   Clear
9:55 AM 35.6 °F 27.1 °F 19.4 °F 52% 30.17 in 10.0 mi WSW 12.7 mph - N/A   Clear
10:16 AM 37.4 °F 28.9 °F 19.4 °F 48% 30.17 in 10.0 mi WSW 13.8 mph - N/A   Clear
10:35 AM 37.4 °F 29.8 °F 21.2 °F 52% 30.18 in 10.0 mi West 11.5 mph 17.3 mph N/A   Clear
10:55 AM 39.2 °F 32.5 °F 21.2 °F 49% 30.17 in 10.0 mi SW 10.4 mph - N/A   Clear
11:35 AM 39.2 °F 31.6 °F 21.2 °F 49% 30.15 in 10.0 mi SW 12.7 mph 18.4 mph N/A   Clear
11:55 AM 41.0 °F 33.9 °F 21.2 °F 45% 30.15 in 10.0 mi SW 12.7 mph - N/A   Clear
12:15 PM 42.8 °F 36.6 °F 21.2 °F 42% 30.13 in 10.0 mi WSW 11.5 mph - N/A   Clear
12:35 PM 42.8 °F 36.6 °F 23.0 °F 46% 30.12 in 10.0 mi WSW 11.5 mph 16.1 mph N/A   Clear
12:55 PM 44.6 °F 39.2 °F 21.2 °F 39% 30.10 in 10.0 mi SW 10.4 mph - N/A   Clear
1:15 PM 44.6 °F 40.7 °F 24.8 °F 46% 30.08 in 10.0 mi SW 6.9 mph - N/A   Clear
1:36 PM 46.4 °F 41.1 °F 23.0 °F 40% 30.08 in 10.0 mi SW 11.5 mph 17.3 mph N/A   Clear
1:55 PM 48.2 °F - 24.8 °F 40% 30.06 in 10.0 mi WSW 16.1 mph - N/A   Clear
2:15 PM 48.2 °F - 24.8 °F 40% 30.05 in 10.0 mi SW 15.0 mph 20.7 mph N/A   Clear
2:35 PM 48.2 °F - 24.8 °F 40% 30.05 in 10.0 mi WSW 16.1 mph 25.3 mph N/A   Clear
2:55 PM 50.0 °F - 26.6 °F 40% 30.05 in 10.0 mi WSW 16.1 mph 21.9 mph N/A   Clear
3:15 PM 48.2 °F - 26.6 °F 43% 30.07 in 10.0 mi WSW 16.1 mph 24.2 mph N/A   Clear
3:35 PM 50.0 °F - 28.4 °F 43% 30.08 in 10.0 mi WSW 15.0 mph 20.7 mph N/A   Clear
3:55 PM 50.0 °F - 28.4 °F 43% 30.07 in 10.0 mi WSW 13.8 mph 21.9 mph N/A   Mostly Cloudy
4:35 PM 48.2 °F - 28.4 °F 46% 30.08 in 10.0 mi West 15.0 mph 18.4 mph N/A   Clear
4:55 PM 48.2 °F - 28.4 °F 46% 30.08 in 10.0 mi West 9.2 mph 16.1 mph N/A   Clear
5:15 PM 46.4 °F 42.9 °F 28.4 °F 50% 30.09 in 10.0 mi West 6.9 mph - N/A   Partly Cloudy
5:35 PM 46.4 °F 42.9 °F 28.4 °F 50% 30.09 in 10.0 mi West 6.9 mph - N/A   Clear
5:55 PM 46.4 °F 42.4 °F 28.4 °F 50% 30.10 in 10.0 mi West 8.1 mph - N/A   Mostly Cloudy
6:15 PM 46.4 °F 44.3 °F 28.4 °F 50% 30.11 in 10.0 mi WNW 4.6 mph - N/A   Overcast
6:35 PM 46.4 °F 41.9 °F 28.4 °F 50% 30.12 in 10.0 mi WNW 9.2 mph 16.1 mph N/A   Overcast
7:15 PM 41.0 °F 32.8 °F 26.6 °F 57% 30.18 in 10.0 mi NW 16.1 mph 27.6 mph N/A   Overcast
7:35 PM 39.2 °F 29.6 °F 24.8 °F 56% 30.20 in 10.0 mi NW 19.6 mph 27.6 mph N/A   Mostly Cloudy
7:55 PM 37.4 °F 28.2 °F 23.0 °F 56% 30.21 in 10.0 mi NW 16.1 mph 24.2 mph N/A   Overcast
8:15 PM 35.6 °F 26.6 °F 23.0 °F 60% 30.23 in 5.0 mi NW 13.8 mph 26.5 mph N/A   Overcast
8:35 PM - - - N/A% 30.23 in 5.0 mi WNW 12.7 mph 19.6 mph N/A   Overcast
9:16 PM 33.8 °F 26.4 °F 23.0 °F 65% 30.27 in 10.0 mi NW 9.2 mph - N/A   Overcast
9:35 PM 33.8 °F 24.3 °F 19.4 °F 56% 30.28 in 10.0 mi NNW 13.8 mph 21.9 mph N/A   Overcast
10:35 PM 30.2 °F 18.9 °F 12.2 °F 47% 30.33 in 10.0 mi NNW 16.1 mph 24.2 mph N/A   Partly Cloudy
10:55 PM 28.4 °F 16.2 °F 10.4 °F 47% 30.33 in 10.0 mi NNW 17.3 mph 25.3 mph N/A   Clear
11:35 PM 26.6 °F 15.7 °F 8.6 °F 47% 30.35 in 10.0 mi NNW 12.7 mph 20.7 mph N/A   Clear